User: anonymous   Login
Location: Brede
(50.9167°N, 0.6000°E)
Time: 06:25:20
(UTC+00:00)
Language:

A-11 Canister half - Orbit

View from above orbital plane
View from above orbital plane
View from above satellite
View from above satellite

Ground track
Ground track

The orbit data is extracted from the following two-line orbital elements,

1    51U 60009C   20331.39580309 -.00000064 +00000-0 +19332-3 0  9999
2    51 047.2110 206.4105 0105522 285.7579 073.1593 12.18272246683830
Epoch (UTC): 26 November 2020 09:29:57
Eccentricity: 0.0105522
inclination: 47.2110°
perigee height: 1516 km
apogee height: 1684 km
right ascension of ascending node: 206.4105°
argument of perigee: 285.7579°
revolutions per day: 12.18272246
mean anomaly at epoch: 73.1593°
orbit number at epoch: 68383

The dashed part of the orbit path shows where the satellite is in the earth's shadow,  

DLR